Location: Plainartige
(45.6866°N, 1.7993°E)
Time: 11:56:45
(UTC+00:00)

Gurwin Techsat 1B - Pass Details

Date: 30 June 2022
Orbit: 812 x 813 km, 98.8° (Epoch: 10 August)

Event Time Altitude Azimuth Distance (km) Brightness Sun altitude
Rises 02:23:00 0° 16° (NNE) 3,346 13.3 -13.5°
Reaches altitude 10° 02:25:22 10° 18° (NNE) 2,410 12.4 -13.3°
Maximum altitude 02:30:42 72° 103° (ESE) 856 8.8 -12.7°
Enters shadow 02:35:34 12° 187° (S) 2,231 10.4 -12.2°
